Location: Laterina
(43.5167°N, 11.7167°E)
Time: 13:22:52
(UTC+00:00)

Cosmos 2026 Rocket - Pass Details

Date: 24 January 2021
Orbit: 940 x 1000 km, 82.9° (Epoch: 28 February)

Event Time Altitude Azimuth Distance (km) Brightness Sun altitude
Rises 17:35:30 0° 174° (S) 3,602 7.1 -14.8°
Reaches altitude 10° 17:38:00 10° 171° (S) 2,668 6.3 -15.2°
Maximum altitude 17:43:58 60° 92° (E) 1,093 4.0 -16.3°
Drops below altitude 10° 17:50:04 10° 15° (NNE) 2,724 6.1 -17.4°
Sets 17:52:38 0° 12° (NNE) 3,685 6.8 -17.8°
